Tracking 29892 objects as of 21-Nov-2024
HD Live streaming from Space Station
objects crossing your sky now

STARLINK-4577

Track STARLINK-4577 now!
10-day predictions
STARLINK-4577 is classified as:


NORAD ID: 53564
Int'l Code: 2022-101AP
Perigee: 546.0 km
Apogee: 547.8 km
Inclination: 53.2 °
Period: 95.4 minutes
Semi major axis: 6917 km
RCS: Unknown
Launch date: August 19, 2022
Source: United States (US)
Launch site: AIR FORCE EASTERN TEST RANGE (AFETR)
Your satellite tracking list
Your tracking list is empty




NASA's NSSDC Master Catalog

Two Line Element Set (TLE):
1 53564U 22101AP  24325.60552884 -.00000196  00000-0  57945-5 0  9995
2 53564  53.2166  22.4323 0001266  86.1966 273.9171 15.08837233124877
Source of the keplerian elements: AFSPC